Regional Weather Roundup
Issued by NWS

Home | Current Version | Previous Version | Text Only | Print | Product List | Glossary Off
Versions: 1 2 3 4 5 6 7 8 9 10 11 12 13 14 15 16 17 18 19 20 21 22 23 24 25 26 27 28 29 30 31 32 33 34 35 36 37 38 39 40 41 42 43 44 45 46 47 48 49 50

000
ASUS43 KIND 261459
RWRIN

WEATHER ROUNDUP FOR INDIANA
NATIONAL WEATHER SERVICE INDIANAPOLIS IN
1100 AM EDT SUN APR 26 2015

NOTE: "FAIR" INDICATES FEW OR NO CLOUDS BELOW 12,000 FEET WITH NO
SIGNIFICANT WEATHER AND/OR OBSTRUCTIONS TO VISIBILITY.

* - STATION DOES NOT REPORT WEATHER SUCH AS PRECIPITATION OR FOG.

+ - STATION NOT QUALITY CONTROLLED BY THE NATIONAL WEATHER SERVICE.
    USE DATA WITH CAUTION...ESPECIALLY DEWPOINT AND RELATIVE
    HUMIDITY OBSERVATIONS.

INZ001>003-010>013-019-020-261600-
NORTHWEST INDIANA

CITY           SKY/WX    TMP DP  RH WIND       PRES   REMARKS
GARY /AIRPORT/ SUNNY     45  30  57 NE14      30.03R
KNOX *+        SUNNY     48  19  32 NE10      29.97S
MONTICELLO +   SUNNY     47  35  64 NE9       29.96R

$$

LMZ046-743>745-261600-
SOUTHERN LAKE MICHIGAN

STATION/POSITION TIME  TEMP    WIND        PRES    WAVE
                       AIR SEA DIR/SP/G            HT
                 (UTC) (F)     (DEG/KT/KT) (MB)    (FT)
BURNS HARBOR     1400   40      20/ 10/ 12 1016.9R
MICHIGAN CITY    1400   40     350/ 14/ 16   N/A
5NW MICH CITY    1400   40 45   20/ 12/ 16   N/A     3

$$

INZ004-005-014>016-021>024-261600-
NORTH CENTRAL INDIANA

CITY           SKY/WX    TMP DP  RH WIND       PRES   REMARKS
GOSHEN         SUNNY     49  32  52 NE13      29.96R
SOUTH BEND     SUNNY     51  30  44 NE10G18   29.99R
WARSAW +       SUNNY     46  32  57 NE10      29.95R

$$

INZ006>009-017-018-025>027-261600-
NORTHEAST INDIANA

CITY           SKY/WX    TMP DP  RH WIND       PRES   REMARKS
ANGOLA *+      SUNNY     46  30  53 VRB7      29.93S
FORT WAYNE     MOSUNNY   49  32  52 NE13      29.93R

$$

INZ028-029-035-036-043>045-051>053-261600-
WEST CENTRAL INDIANA

CITY           SKY/WX    TMP DP  RH WIND       PRES   REMARKS
GREENCASTLE +  SUNNY     48  32  53 NE9       29.91S
LAFAYETTE      SUNNY     48  34  58 N8        29.95R
TERRE HAUTE    SUNNY     52  36  54 NE13      29.92R

$$

INZ030>032-037>040-046>048-054>057-064-065-261600-
CENTRAL INDIANA

CITY           SKY/WX    TMP DP  RH WIND       PRES   REMARKS
FRANKFORT +    SUNNY     47  37  66 N12       29.95R
GREENWOOD *+   SUNNY     50  32  50 NE10      29.90R
INDIANAPOLIS   MOSUNNY   50  32  50 NE9       29.90R
-EAGLE CREEK   SUNNY     50  33  52 N9        29.91R
KOKOMO *+      SUNNY     46  34  61 NE10      29.94R
MT COMFORT *+  SUNNY     50  27  40 N12       29.90R
SHELBYVILLE    SUNNY     51  35  54 N9        29.89R

$$

INZ033-034-041-042-049-050-058-059-261600-
EAST CENTRAL INDIANA

CITY           SKY/WX    TMP DP  RH WIND       PRES   REMARKS
MUNCIE         SUNNY     47  35  63 NE12      29.91R

$$

INZ060-061-067>069-081>083-085>088-261600-
SOUTHWEST INDIANA

CITY           SKY/WX    TMP DP  RH WIND       PRES   REMARKS
EVANSVILLE     MOSUNNY   52  35  52 NE12      29.87R
HUNTINGBURG *+ SUNNY     52  36  54 NE10      29.86S

$$

INZ062-063-066-070>080-084-089>092-261600-
SOUTH CENTRAL AND SOUTHEAST INDIANA

CITY           SKY/WX    TMP DP  RH WIND       PRES   REMARKS
BLOOMINGTON    MOSUNNY   52  32  46 N10       29.88R
MADISON *+     SUNNY     52  32  46 N5        29.86R
SEYMOUR +      SUNNY     52  37  58 N13       29.87R

$$



USA.gov is the U.S. government's official web portal to all federal, state and local government web resources and services.